Location: Unspecified
(22.6800°N, 112.2000°E)
Time: 08:48:37
(UTC+08:00)

X-37B - Pass Details

Date: 24 June 2021
Orbit: 383 x 392 km, 45.0° (Epoch: 01 July)

Event Time Altitude Azimuth Distance (km) Brightness Sun altitude
Exits shadow 04:52:31 - 301° (WNW) 1,959 3.9 -12.0°
Reaches altitude 10° 04:53:56 10° 294° (WNW) 1,400 3.1 -11.7°
Maximum altitude 04:56:53 37° 225° (SW) 613 1.1 -11.2°
Drops below altitude 10° 04:59:50 10° 156° (SSE) 1,400 3.3 -10.6°
Sets 05:01:59 0° 147° (SSE) 2,253 4.5 -10.2°
